sat.trackr.live / text

‹ back to catalog

HULIANWANG DIGUI-166

NORAD 68658 · 2026-076C

PAYLOAD ACTIVE UNKNOWN

§ Identity

Operator
Country
PRC
Launch date
2026-04-08
Launch site
TAISC
Launch vehicle
Mass (kg)
RCS (m²)

External: N2YO · Heavens-Above · Gunter

§ Orbital elements

Epoch: 2026-09-20T03:38:02.467680Z

Period
108.73 min
Inclination
86.4994°
Eccentricity
0.0001365
Mean motion
13.24408687 rev/d
Perigee alt
1,166.9 km
Apogee alt
1,169.0 km
Semi-major
7,546.1 km
B*
1.7437e-5
RAAN
11.7405°
Arg perigee
113.5405°
Mean anomaly
246.5873°
Rev number
2,194

§ Raw data

HULIANWANG DIGUI-1661 68658U 26076C   26263.15141745  .00000022  00000+0  17437-4 0  99902 68658  86.4994  11.7405 0001365 113.5405 246.5873 13.24408687 21941

JSON: /api/v1/satellites/68658 · /tle

For live sub-satellite position, see the globe view (requires WebGL).

§ Visibility from observer

Set your observer location to see the next 7 days of passes ≥ 10°. The values pass through the URL so the page stays shareable.

No JS? Fill the form by hand. The geolocation button needs JavaScript.